www.pogodaiklimat.ru
ПОГОДА в Коннелсвилле
Время
и дата
06:35 01.12
06:55 01.12
07:15 01.12
07:35 01.12
07:55 01.12
08:15 01.12
08:35 01.12
08:55 01.12
09:15 01.12
09:35 01.12
09:55 01.12
10:15 01.12
10:35 01.12
10:55 01.12
11:15 01.12
11:35 01.12
11:55 01.12
12:15 01.12
12:35 01.12
12:55 01.12
13:15 01.12
13:35 01.12
13:55 01.12
14:15 01.12
14:35 01.12
14:55 01.12
15:15 01.12
15:35 01.12
15:55 01.12
16:15 01.12
16:35 01.12
16:55 01.12
17:15 01.12
17:35 01.12
17:55 01.12
18:15 01.12
18:35 01.12
18:55 01.12
19:15 01.12
19:35 01.12
19:55 01.12
20:15 01.12
20:35 01.12
20:55 01.12
21:15 01.12
21:35 01.12
21:55 01.12
22:15 01.12
Ветер
(напр.,м/с)
Видим. Явления Облачность Т
(С)
Тd
(С)
f
(%)
Тe
(С)
Тes
(С)
Комфортность P
(гПа)
Po
(гПа)
Тmin
(С)
Tmax
(С)
R
(мм)
R24
(мм)
S
(см)
З 7
{10}
16 км 10/10 -2.7 -9.4 60 -10 -10 982.4
З 8
{10}
16 км 10/10 -2.7 -9.5 59 -10 -10 982.8 -2.7 -0.9 4.6
З 6
{11}
16 км 10/10 -2.9 -9.6 60 -10 -10 983.1
З 6 16 км 10/10 -3.0 -9.6 60 -10 -10 983.4
З 6
{8}
16 км 10/10 -2.9 -9.2 62 -10 -10 984.0
З 6
{9}
16 км 10/10 -2.9 -9.3 61 -10 -10 984.0
З 5
{8}
16 км 10/10 -2.9 -9.2 62 -9 -9 984.4
ЮЗ 5 16 км 10/10 -2.9 -9.0 63 -9 -9 984.7
З 5 16 км 10/10 -2.9 -9.1 62 -9 -9 984.7
ЮЗ 4 16 км 10/10 -2.7 -9.1 61 -8 -8 985.0
З 6
{8}
16 км 10/10 -2.7 -9.3 60 -10 -10 985.3
З 6 16 км 8/8 -2.7 -9.2 61 -10 -9 985.7
З 6
{9}
16 км 8/8 -1.8 -8.9 58 -8 -8 985.7
ЮЗ 6 н/о ?/? -1.1 -8.6 57 -7 -7 985.7
З 5
{9}
16 км 10/10 -1.0 -8.5 57 -7 -7 985.7
З 4 16 км 5/5 -0.8 -8.4 56 -6 -5 985.3
З 5 16 км ясно -0.6 -8.3 56 -6 -4 985.3
З 5 16 км ясно +0.2 -7.9 54 -5 -3 985.3
З 7 16 км ясно +0.1 -8.5 52 -6 -5 985.3
З 5 16 км ясно +0.3 -8.4 52 -5 -3 985.3 -1.3 +0.5
З 3 16 км ясно +0.7 -8.3 51 -3 +1 985.0
З 5 16 км ясно +0.9 -8.4 50 -4 -2 984.7
З 5 16 км ясно +1.1 -8.5 49 -4 -2 984.7
З 5 16 км ясно +1.4 -8.6 47 -4 -2 984.7
З 4 16 км ясно +1.5 -8.6 47 -3 0 984.7
З 5 16 км ясно +1.8 -8.4 47 -3 -1 985.0
З 4 16 км ясно +1.6 -8.6 47 -3 -1 985.0
З 4 16 км ясно +1.8 -8.6 46 -2 -1 985.0
З 4 16 км ясно +1.6 -9.0 45 -3 -1 985.3
З 3 16 км ясно +1.3 -8.9 47 -2 -2 985.3
З 3 16 км ясно +0.9 -9.0 48 -3 -2 985.3
З 2 16 км ясно +0.3 -9.0 50 -3 -2 985.7
штиль 0 16 км ясно +0.2 -9.1 50 0 0 985.3
штиль 0 16 км ясно -0.5 -9.2 52 -1 -1 985.3
В 2 16 км ясно -1.3 -8.6 58 -5 -5 985.3
В 2 16 км ясно -1.6 -8.3 60 -5 -5 985.7
В 2 16 км ясно -2.5 -8.0 66 -6 -6 985.3
штиль 0 16 км ясно -2.3 -8.2 64 -3 -3 985.3 -2.8 +2.1
В 2 16 км ясно -2.5 -8.0 66 -6 -6 985.3
В 2 16 км ясно -3.0 -7.9 69 -7 -7 985.3
В 2 16 км ясно -3.0 -7.5 71 -7 -7 985.3
В 2 16 км ясно -3.1 -7.7 71 -7 -7 985.0
штиль 0 16 км ясно -3.3 -8.1 69 -4 -4 985.0
штиль 0 16 км ясно -3.6 -8.1 71 -4 -4 985.0
штиль 0 16 км ясно -3.9 -8.0 73 -5 -5 985.0
штиль 0 16 км ясно -3.5 -7.6 73 -4 -4 985.0
В 2 16 км ясно -3.7 -7.5 75 -8 -8 985.3
В 2 16 км ясно -3.4 -7.6 73 -7 -7 985.0
Местоположение метеостанции Joseph A. Hardy Connellsville Airport: широта 39.9581 долгота -79.6575 высота над уровнем моря 386 м.
В архиве по умолчанию представлена погода в Коннелсвилле за последние 1-2 суток. Обновление информации о фактической погоде в базе происходит ежечасно! Архивные данные за месяц целиком и за предыдущие месяцы Вы можете получить, выбрав интересующий диапазон дат из раскрывающегося списка и нажав кнопку "Ввод!".
Внимание! Архив погоды МЕТАР в базе сайта по станциям, не включенным в климатический монитор, хранится не более 60 дней. Нет смысла пытаться выбрать более раннюю дату.
*Определитесь, кто Вы:
Внимание! Время в таблицах - местное (без учета летнего времени). Для получения всемирного времени необходимо вычесть поправку, которая равна -5 ч.
Смотрите также архив погоды в соседних городах и на ближайших метеорологических станциях:
Партнеры нашего сайта:      
Пояснения к столбцам:
  • Ветер - указаны скорость ветра в м/с - средняя за 10 мин, порывы в срок и между сроками (в фигурных скобках) и направление, откуда дует ветер: С - северный,
  • СВ - северо-восточный, В - восточный, ЮВ - юго-восточный, Ю - южный, ЮЗ - юго-западный, З - западный, СЗ - северо-западный.
  • Видимость - горизонтальная дальность видимости в метрах или километрах. При видимости от 1 до 10 км при отсутствии осадков обычно наблюдается дымка, при ухудшении видимости до 1 км и менее - туман. В сухую погоду видимость может ухудшаться дымом, пылью или мглою.
  • Явления - указаны атмосферные явления, наблюдавшиеся в срок или в последний час перед сроком; фигурными скобками обозначены явления, наблюдавшиеся между сроками (за 1-3 часа до срока); квадратными скобками обозначены град или гололедные отложения с указанием их диаметра в мм.
  • Облачность - указаны через наклонную черту общая и нижняя облачность в баллах и высота нижней границы облаков в метрах; квадратными скобками обозначены формы облаков: Ci - перистые, Cs - перисто-слоистые, Cc - перисто-кучевые, Ac - высококучевые, As - высокослоистые, Sc - слоисто-кучевые, Ns - слоисто-дождевые, Cu - кучевые, Cb - кучево-дождевые. Подробнее классификацию облаков см. в Атласе облаков (PDF).
  • T - Температура воздуха - температура, измеренная на высоте 2 м над землей.
  • Td - Температура точки росы - температура, при понижении до которой содержащийся в воздухе водяной пар достигнет насыщения.
  • f - Относительная влажность воздуха - влажноcть воздуха, измеренная на высоте 2 м над землей.
  • Te - Эффективная температура - температура, которую ощущает одетый по сезону человек в тени. Характеристика душности погоды. При расчете учитывается влияние влажности воздуха и скорости ветра на теплоощущения человека.
  • Tes - Эффективная температура на солнце - температура, которую ощущает человек, с поправкой на солнечный нагрев. Характеристика знойности погоды. Зависит от высоты солнца над горизонтом, облачности и скорости ветра. Ночью, в пасмурную погоду, а также при ветре 12 м/с и более поправка равна нулю.
  • P - Атмосферное давление - приведенное к уровню моря атмосферное давление.
  • Po - Атмосферное давление - измеренное на уровне метеостанции атмосферное давление.
  • Tmin - Минимальная температура - минимум температуры воздуха на высоте 2 м над землей.
  • Tmax - Максимальная температура - максимум температуры воздуха на высоте 2 м над землей.
  • R - Количество осадков - Количество выпавших осадков за период времени, мм. При наведении курсора мыши на число - период времени, за который выпало указанное количество осадков.
  • R24 - Количество осадков - Количество выпавших осадков за 24 часа, мм.
  • S - Снежный покров - Высота снежного покрова, см. При наведении курсора мыши на число - состояние снежного покрова и степень покрытия местности в баллах.